Year,Month,Day,Hour,Minute,Value (Times are PST for insolation in W/m^2)
2014,11,08,00,00,0.00
2014,11,08,00,01,0.00
2014,11,08,00,02,0.00
2014,11,08,00,03,0.00
2014,11,08,00,04,0.00
2014,11,08,00,05,0.00
2014,11,08,00,06,0.00
2014,11,08,00,07,0.00
2014,11,08,00,08,0.00
2014,11,08,00,09,0.00
2014,11,08,00,10,0.00
2014,11,08,00,11,0.00
2014,11,08,00,12,0.00
2014,11,08,00,13,0.00
2014,11,08,00,14,0.00
2014,11,08,00,15,0.00
2014,11,08,00,16,0.00
2014,11,08,00,17,0.00
2014,11,08,00,18,0.00
2014,11,08,00,19,0.00
2014,11,08,00,20,0.00
2014,11,08,00,21,0.00
2014,11,08,00,22,0.00
2014,11,08,00,23,0.00
2014,11,08,00,24,0.00
2014,11,08,00,25,0.00
2014,11,08,00,26,0.00
2014,11,08,00,27,0.00
2014,11,08,00,28,0.00
2014,11,08,00,29,0.00
2014,11,08,00,30,0.00
2014,11,08,00,31,0.00
2014,11,08,00,32,0.00
2014,11,08,00,33,0.00
2014,11,08,00,34,0.00
2014,11,08,00,35,0.00
2014,11,08,00,36,0.00
2014,11,08,00,37,0.00
2014,11,08,00,38,0.00
2014,11,08,00,39,0.00
2014,11,08,00,40,0.00
2014,11,08,00,41,0.00
2014,11,08,00,42,0.00
2014,11,08,00,43,0.00
2014,11,08,00,44,0.00
2014,11,08,00,45,0.00
2014,11,08,00,46,0.00
2014,11,08,00,47,0.00
2014,11,08,00,48,0.00
2014,11,08,00,49,0.00
2014,11,08,00,50,0.00
2014,11,08,00,51,0.00
2014,11,08,00,52,0.00
2014,11,08,00,53,0.00
2014,11,08,00,54,0.00
2014,11,08,00,55,0.00
2014,11,08,00,56,0.00
2014,11,08,00,57,0.00
2014,11,08,00,58,0.00
2014,11,08,00,59,0.00
2014,11,08,01,00,0.00
2014,11,08,01,01,0.00
2014,11,08,01,02,0.00
2014,11,08,01,03,0.00
2014,11,08,01,04,0.00
2014,11,08,01,05,0.00
2014,11,08,01,06,0.00
2014,11,08,01,07,0.00
2014,11,08,01,08,0.00
2014,11,08,01,09,0.00
2014,11,08,01,10,0.00
2014,11,08,01,11,0.00
2014,11,08,01,12,0.00
2014,11,08,01,13,0.00
2014,11,08,01,14,0.00
2014,11,08,01,15,0.00
2014,11,08,01,16,0.00
2014,11,08,01,17,0.00
2014,11,08,01,18,0.00
2014,11,08,01,19,0.00
2014,11,08,01,20,0.00
2014,11,08,01,21,0.00
2014,11,08,01,22,0.00
2014,11,08,01,23,0.00
2014,11,08,01,24,0.00
2014,11,08,01,25,0.00
2014,11,08,01,26,0.00
2014,11,08,01,27,0.00
2014,11,08,01,28,0.00
2014,11,08,01,29,0.00
2014,11,08,01,30,0.00
2014,11,08,01,31,0.00
2014,11,08,01,32,0.00
2014,11,08,01,33,0.00
2014,11,08,01,34,0.00
2014,11,08,01,35,0.00
2014,11,08,01,36,0.00
2014,11,08,01,37,0.00
2014,11,08,01,38,0.00
2014,11,08,01,39,0.00
2014,11,08,01,40,0.00
2014,11,08,01,41,0.00
2014,11,08,01,42,0.00
2014,11,08,01,43,0.00
2014,11,08,01,44,0.00
2014,11,08,01,45,0.00
2014,11,08,01,46,0.00
2014,11,08,01,47,0.00
2014,11,08,01,48,0.00
2014,11,08,01,49,0.00
2014,11,08,01,50,0.00
2014,11,08,01,51,0.00
2014,11,08,01,52,0.00
2014,11,08,01,53,0.00
2014,11,08,01,54,0.00
2014,11,08,01,55,0.00
2014,11,08,01,56,0.00
2014,11,08,01,57,0.00
2014,11,08,01,58,0.00
2014,11,08,01,59,0.00
2014,11,08,02,00,0.00
2014,11,08,02,01,0.00
2014,11,08,02,02,0.00
2014,11,08,02,03,0.00
2014,11,08,02,04,0.00
2014,11,08,02,05,0.00
2014,11,08,02,06,0.00
2014,11,08,02,07,0.00
2014,11,08,02,08,0.00
2014,11,08,02,09,0.00
2014,11,08,02,10,0.00
2014,11,08,02,11,0.00
2014,11,08,02,12,0.00
2014,11,08,02,13,0.00
2014,11,08,02,14,0.00
2014,11,08,02,15,0.00
2014,11,08,02,16,0.00
2014,11,08,02,17,0.00
2014,11,08,02,18,0.00
2014,11,08,02,19,0.00
2014,11,08,02,20,0.00
2014,11,08,02,21,0.00
2014,11,08,02,22,0.00
2014,11,08,02,23,0.00
2014,11,08,02,24,0.00
2014,11,08,02,25,0.00
2014,11,08,02,26,0.00
2014,11,08,02,27,0.00
2014,11,08,02,28,0.00
2014,11,08,02,29,0.00
2014,11,08,02,30,0.00
2014,11,08,02,31,0.00
2014,11,08,02,32,0.00
2014,11,08,02,33,0.00
2014,11,08,02,34,0.00
2014,11,08,02,35,0.00
2014,11,08,02,36,0.00
2014,11,08,02,37,0.00
2014,11,08,02,38,0.00
2014,11,08,02,39,0.00
2014,11,08,02,40,0.00
2014,11,08,02,41,0.00
2014,11,08,02,42,0.00
2014,11,08,02,43,0.00
2014,11,08,02,44,0.00
2014,11,08,02,45,0.00
2014,11,08,02,46,0.00
2014,11,08,02,47,0.00
2014,11,08,02,48,0.00
2014,11,08,02,49,0.00
2014,11,08,02,50,0.00
2014,11,08,02,51,0.00
2014,11,08,02,52,0.00
2014,11,08,02,53,0.00
2014,11,08,02,54,0.00
2014,11,08,02,55,0.00
2014,11,08,02,56,0.00
2014,11,08,02,57,0.00
2014,11,08,02,58,0.00
2014,11,08,02,59,0.00
2014,11,08,03,00,0.00
2014,11,08,03,01,0.00
2014,11,08,03,02,0.00
2014,11,08,03,03,0.00
2014,11,08,03,04,0.00
2014,11,08,03,05,0.00
2014,11,08,03,06,0.00
2014,11,08,03,07,0.00
2014,11,08,03,08,0.00
2014,11,08,03,09,0.00
2014,11,08,03,10,0.00
2014,11,08,03,11,0.00
2014,11,08,03,12,0.00
2014,11,08,03,13,0.00
2014,11,08,03,14,0.00
2014,11,08,03,15,0.00
2014,11,08,03,16,0.00
2014,11,08,03,17,0.00
2014,11,08,03,18,0.00
2014,11,08,03,19,0.00
2014,11,08,03,20,0.00
2014,11,08,03,21,0.00
2014,11,08,03,22,0.00
2014,11,08,03,23,0.00
2014,11,08,03,24,0.00
2014,11,08,03,25,0.00
2014,11,08,03,26,0.00
2014,11,08,03,27,0.00
2014,11,08,03,28,0.00
2014,11,08,03,29,0.00
2014,11,08,03,30,0.00
2014,11,08,03,31,0.00
2014,11,08,03,32,0.00
2014,11,08,03,33,0.00
2014,11,08,03,34,0.00
2014,11,08,03,35,0.00
2014,11,08,03,36,0.00
2014,11,08,03,37,0.00
2014,11,08,03,38,0.00
2014,11,08,03,39,0.00
2014,11,08,03,40,0.00
2014,11,08,03,41,0.00
2014,11,08,03,42,0.00
2014,11,08,03,43,0.00
2014,11,08,03,44,0.00
2014,11,08,03,45,0.00
2014,11,08,03,46,0.00
2014,11,08,03,47,0.00
2014,11,08,03,48,0.00
2014,11,08,03,49,0.00
2014,11,08,03,50,0.00
2014,11,08,03,51,0.00
2014,11,08,03,52,0.00
2014,11,08,03,53,0.00
2014,11,08,03,54,0.00
2014,11,08,03,55,0.00
2014,11,08,03,56,0.00
2014,11,08,03,57,0.00
2014,11,08,03,58,0.00
2014,11,08,03,59,0.00
2014,11,08,04,00,0.00
2014,11,08,04,01,0.00
2014,11,08,04,02,0.00
2014,11,08,04,03,0.00
2014,11,08,04,04,0.00
2014,11,08,04,05,0.00
2014,11,08,04,06,0.00
2014,11,08,04,07,0.00
2014,11,08,04,08,0.00
2014,11,08,04,09,0.00
2014,11,08,04,10,0.00
2014,11,08,04,11,0.00
2014,11,08,04,12,0.00
2014,11,08,04,13,0.00
2014,11,08,04,14,0.00
2014,11,08,04,15,0.00
2014,11,08,04,16,0.00
2014,11,08,04,17,0.00
2014,11,08,04,18,0.00
2014,11,08,04,19,0.00
2014,11,08,04,20,0.00
2014,11,08,04,21,0.00
2014,11,08,04,22,0.00
2014,11,08,04,23,0.00
2014,11,08,04,24,0.00
2014,11,08,04,25,0.00
2014,11,08,04,26,0.00
2014,11,08,04,27,0.00
2014,11,08,04,28,0.00
2014,11,08,04,29,0.00
2014,11,08,04,30,0.00
2014,11,08,04,31,0.00
2014,11,08,04,32,0.00
2014,11,08,04,33,0.00
2014,11,08,04,34,0.00
2014,11,08,04,35,0.00
2014,11,08,04,36,0.00
2014,11,08,04,37,0.00
2014,11,08,04,38,0.00
2014,11,08,04,39,0.00
2014,11,08,04,40,0.00
2014,11,08,04,41,0.00
2014,11,08,04,42,0.00
2014,11,08,04,43,0.00
2014,11,08,04,44,0.00
2014,11,08,04,45,0.00
2014,11,08,04,46,0.00
2014,11,08,04,47,0.00
2014,11,08,04,48,0.00
2014,11,08,04,49,0.00
2014,11,08,04,50,0.00
2014,11,08,04,51,0.00
2014,11,08,04,52,0.00
2014,11,08,04,53,0.00
2014,11,08,04,54,0.00
2014,11,08,04,55,0.00
2014,11,08,04,56,0.00
2014,11,08,04,57,0.00
2014,11,08,04,58,0.00
2014,11,08,04,59,0.00
2014,11,08,05,00,0.00
2014,11,08,05,01,0.00
2014,11,08,05,02,0.00
2014,11,08,05,03,0.00
2014,11,08,05,04,0.00
2014,11,08,05,05,0.00
2014,11,08,05,06,0.00
2014,11,08,05,07,0.00
2014,11,08,05,08,0.00
2014,11,08,05,09,0.00
2014,11,08,05,10,0.00
2014,11,08,05,11,0.00
2014,11,08,05,12,0.00
2014,11,08,05,13,0.00
2014,11,08,05,14,0.00
2014,11,08,05,15,0.00
2014,11,08,05,16,0.00
2014,11,08,05,17,0.00
2014,11,08,05,18,0.00
2014,11,08,05,19,0.00
2014,11,08,05,20,0.00
2014,11,08,05,21,0.00
2014,11,08,05,22,0.00
2014,11,08,05,23,0.00
2014,11,08,05,24,0.00
2014,11,08,05,25,0.00
2014,11,08,05,26,0.00
2014,11,08,05,27,0.00
2014,11,08,05,28,0.00
2014,11,08,05,29,0.00
2014,11,08,05,30,0.00
2014,11,08,05,31,0.00
2014,11,08,05,32,0.00
2014,11,08,05,33,0.00
2014,11,08,05,34,0.00
2014,11,08,05,35,0.00
2014,11,08,05,36,0.00
2014,11,08,05,37,0.00
2014,11,08,05,38,0.00
2014,11,08,05,39,0.00
2014,11,08,05,40,0.00
2014,11,08,05,41,0.00
2014,11,08,05,42,0.00
2014,11,08,05,43,0.00
2014,11,08,05,44,0.00
2014,11,08,05,45,0.00
2014,11,08,05,46,0.00
2014,11,08,05,47,0.00
2014,11,08,05,48,0.00
2014,11,08,05,49,0.00
2014,11,08,05,50,0.00
2014,11,08,05,51,0.00
2014,11,08,05,52,0.00
2014,11,08,05,53,0.00
2014,11,08,05,54,0.00
2014,11,08,05,55,0.00
2014,11,08,05,56,0.00
2014,11,08,05,57,0.00
2014,11,08,05,58,0.00
2014,11,08,05,59,0.00
2014,11,08,06,00,0.00
2014,11,08,06,01,0.00
2014,11,08,06,02,0.00
2014,11,08,06,03,0.00
2014,11,08,06,04,0.00
2014,11,08,06,05,0.00
2014,11,08,06,06,0.00
2014,11,08,06,07,0.00
2014,11,08,06,08,0.00
2014,11,08,06,09,0.00
2014,11,08,06,10,0.00
2014,11,08,06,11,0.00
2014,11,08,06,12,0.00
2014,11,08,06,13,0.00
2014,11,08,06,14,0.00
2014,11,08,06,15,0.00
2014,11,08,06,16,0.00
2014,11,08,06,17,0.00
2014,11,08,06,18,0.00
2014,11,08,06,19,0.00
2014,11,08,06,20,0.00
2014,11,08,06,21,0.00
2014,11,08,06,22,0.00
2014,11,08,06,23,0.00
2014,11,08,06,24,0.00
2014,11,08,06,25,0.00
2014,11,08,06,26,0.00
2014,11,08,06,27,0.00
2014,11,08,06,28,0.00
2014,11,08,06,29,0.00
2014,11,08,06,30,0.00
2014,11,08,06,31,0.00
2014,11,08,06,32,0.00
2014,11,08,06,33,0.00
2014,11,08,06,34,0.00
2014,11,08,06,35,0.00
2014,11,08,06,36,0.00
2014,11,08,06,37,0.00
2014,11,08,06,38,0.00
2014,11,08,06,39,0.00
2014,11,08,06,40,0.00
2014,11,08,06,41,0.00
2014,11,08,06,42,0.00
2014,11,08,06,43,0.00
2014,11,08,06,44,0.00
2014,11,08,06,45,0.00
2014,11,08,06,46,0.00
2014,11,08,06,47,0.00
2014,11,08,06,48,0.00
2014,11,08,06,49,0.00
2014,11,08,06,50,0.00
2014,11,08,06,51,0.00
2014,11,08,06,52,0.00
2014,11,08,06,53,0.00
2014,11,08,06,54,0.00
2014,11,08,06,55,0.00
2014,11,08,06,56,0.00
2014,11,08,06,57,0.00
2014,11,08,06,58,0.00
2014,11,08,06,59,0.00
2014,11,08,07,00,0.00
2014,11,08,07,01,0.00
2014,11,08,07,02,0.00
2014,11,08,07,03,0.00
2014,11,08,07,04,0.00
2014,11,08,07,05,0.00
2014,11,08,07,06,0.00
2014,11,08,07,07,0.00
2014,11,08,07,08,0.00
2014,11,08,07,09,0.00
2014,11,08,07,10,0.00
2014,11,08,07,11,0.00
2014,11,08,07,12,0.00
2014,11,08,07,13,0.00
2014,11,08,07,14,0.00
2014,11,08,07,15,0.00
2014,11,08,07,16,0.00
2014,11,08,07,17,0.00
2014,11,08,07,18,0.00
2014,11,08,07,19,0.00
2014,11,08,07,20,0.00
2014,11,08,07,21,0.00
2014,11,08,07,22,0.00
2014,11,08,07,23,0.00
2014,11,08,07,24,0.00
2014,11,08,07,25,0.00
2014,11,08,07,26,0.00
2014,11,08,07,27,0.00
2014,11,08,07,28,0.00
2014,11,08,07,29,0.00
2014,11,08,07,30,0.00
2014,11,08,07,31,0.00
2014,11,08,07,32,0.00
2014,11,08,07,33,0.00
2014,11,08,07,34,0.00
2014,11,08,07,35,0.00
2014,11,08,07,36,0.00
2014,11,08,07,37,0.00
2014,11,08,07,38,0.00
2014,11,08,07,39,2.00
2014,11,08,07,40,5.00
2014,11,08,07,41,5.00
2014,11,08,07,42,5.00
2014,11,08,07,43,5.00
2014,11,08,07,44,6.70
2014,11,08,07,45,7.00
2014,11,08,07,46,7.00
2014,11,08,07,47,7.00
2014,11,08,07,48,7.50
2014,11,08,07,49,9.00
2014,11,08,07,50,9.00
2014,11,08,07,51,9.00
2014,11,08,07,52,9.00
2014,11,08,07,53,10.30
2014,11,08,07,54,11.00
2014,11,08,07,55,11.00
2014,11,08,07,56,11.00
2014,11,08,07,57,11.10
2014,11,08,07,58,12.00
2014,11,08,07,59,12.00
2014,11,08,08,00,12.00
2014,11,08,08,01,12.00
2014,11,08,08,02,13.00
2014,11,08,08,03,14.00
2014,11,08,08,04,14.00
2014,11,08,08,05,14.00
2014,11,08,08,06,14.00
2014,11,08,08,07,14.00
2014,11,08,08,08,14.00
2014,11,08,08,09,14.00
2014,11,08,08,10,14.00
2014,11,08,08,11,13.30
2014,11,08,08,12,12.00
2014,11,08,08,13,12.00
2014,11,08,08,14,12.00
2014,11,08,08,15,12.00
2014,11,08,08,16,12.00
2014,11,08,08,17,13.60
2014,11,08,08,18,14.00
2014,11,08,08,19,14.00
2014,11,08,08,20,13.70
2014,11,08,08,21,12.40
2014,11,08,08,22,14.70
2014,11,08,08,23,16.80
2014,11,08,08,24,19.40
2014,11,08,08,25,23.20
2014,11,08,08,26,28.30
2014,11,08,08,27,33.70
2014,11,08,08,28,38.30
2014,11,08,08,29,39.90
2014,11,08,08,30,38.90
2014,11,08,08,31,37.00
2014,11,08,08,32,37.00
2014,11,08,08,33,37.70
2014,11,08,08,34,39.40
2014,11,08,08,35,41.00
2014,11,08,08,36,43.10
2014,11,08,08,37,42.70
2014,11,08,08,38,42.00
2014,11,08,08,39,42.00
2014,11,08,08,40,40.20
2014,11,08,08,41,39.00
2014,11,08,08,42,38.10
2014,11,08,08,43,33.00
2014,11,08,08,44,33.70
2014,11,08,08,45,35.80
2014,11,08,08,46,38.00
2014,11,08,08,47,39.00
2014,11,08,08,48,39.00
2014,11,08,08,49,37.50
2014,11,08,08,50,33.70
2014,11,08,08,51,33.00
2014,11,08,08,52,33.10
2014,11,08,08,53,35.30
2014,11,08,08,54,37.40
2014,11,08,08,55,39.00
2014,11,08,08,56,38.20
2014,11,08,08,57,36.00
2014,11,08,08,58,33.80
2014,11,08,08,59,33.00
2014,11,08,09,00,32.30
2014,11,08,09,01,30.40
2014,11,08,09,02,30.00
2014,11,08,09,03,28.00
2014,11,08,09,04,28.30
2014,11,08,09,05,30.50
2014,11,08,09,06,32.30
2014,11,08,09,07,33.80
2014,11,08,09,08,36.00
2014,11,08,09,09,37.00
2014,11,08,09,10,35.70
2014,11,08,09,11,33.50
2014,11,08,09,12,34.70
2014,11,08,09,13,35.00
2014,11,08,09,14,39.40
2014,11,08,09,15,44.00
2014,11,08,09,16,45.20
2014,11,08,09,17,50.30
2014,11,08,09,18,55.00
2014,11,08,09,19,60.10
2014,11,08,09,20,63.80
2014,11,08,09,21,67.60
2014,11,08,09,22,69.70
2014,11,08,09,23,71.60
2014,11,08,09,24,72.00
2014,11,08,09,25,72.10
2014,11,08,09,26,74.00
2014,11,08,09,27,74.50
2014,11,08,09,28,76.30
2014,11,08,09,29,79.40
2014,11,08,09,30,85.40
2014,11,08,09,31,89.20
2014,11,08,09,32,90.00
2014,11,08,09,33,90.00
2014,11,08,09,34,90.00
2014,11,08,09,35,90.00
2014,11,08,09,36,95.10
2014,11,08,09,37,97.00
2014,11,08,09,38,96.60
2014,11,08,09,39,95.00
2014,11,08,09,40,95.80
2014,11,08,09,41,95.10
2014,11,08,09,42,90.20
2014,11,08,09,43,89.30
2014,11,08,09,44,90.00
2014,11,08,09,45,99.80
2014,11,08,09,46,104.70
2014,11,08,09,47,104.90
2014,11,08,09,48,103.70
2014,11,08,09,49,101.50
2014,11,08,09,50,100.00
2014,11,08,09,51,100.80
2014,11,08,09,52,104.40
2014,11,08,09,53,108.10
2014,11,08,09,54,101.20
2014,11,08,09,55,89.10
2014,11,08,09,56,86.00
2014,11,08,09,57,89.60
2014,11,08,09,58,90.50
2014,11,08,09,59,96.70
2014,11,08,10,00,92.70
2014,11,08,10,01,82.70
2014,11,08,10,02,73.10
2014,11,08,10,03,66.00
2014,11,08,10,04,64.10
2014,11,08,10,05,66.30
2014,11,08,10,06,63.50
2014,11,08,10,07,57.10
2014,11,08,10,08,56.00
2014,11,08,10,09,57.90
2014,11,08,10,10,58.30
2014,11,08,10,11,60.40
2014,11,08,10,12,64.10
2014,11,08,10,13,70.90
2014,11,08,10,14,75.00
2014,11,08,10,15,76.60
2014,11,08,10,16,78.30
2014,11,08,10,17,81.90
2014,11,08,10,18,83.00
2014,11,08,10,19,83.00
2014,11,08,10,20,74.30
2014,11,08,10,21,72.30
2014,11,08,10,22,73.00
2014,11,08,10,23,69.00
2014,11,08,10,24,67.80
2014,11,08,10,25,71.40
2014,11,08,10,26,75.20
2014,11,08,10,27,76.00
2014,11,08,10,28,78.10
2014,11,08,10,29,83.00
2014,11,08,10,30,81.30
2014,11,08,10,31,80.70
2014,11,08,10,32,74.70
2014,11,08,10,33,78.60
2014,11,08,10,34,74.70
2014,11,08,10,35,68.00
2014,11,08,10,36,65.00
2014,11,08,10,37,66.20
2014,11,08,10,38,67.00
2014,11,08,10,39,68.50
2014,11,08,10,40,69.00
2014,11,08,10,41,69.00
2014,11,08,10,42,72.30
2014,11,08,10,43,76.00
2014,11,08,10,44,76.00
2014,11,08,10,45,76.30
2014,11,08,10,46,77.00
2014,11,08,10,47,76.50
2014,11,08,10,48,74.80
2014,11,08,10,49,71.30
2014,11,08,10,50,70.00
2014,11,08,10,51,70.00
2014,11,08,10,52,71.90
2014,11,08,10,53,74.10
2014,11,08,10,54,76.00
2014,11,08,10,55,76.30
2014,11,08,10,56,76.70
2014,11,08,10,57,76.00
2014,11,08,10,58,75.00
2014,11,08,10,59,71.60
2014,11,08,11,00,68.00
2014,11,08,11,01,64.00
2014,11,08,11,02,60.60
2014,11,08,11,03,56.30
2014,11,08,11,04,54.00
2014,11,08,11,05,54.30
2014,11,08,11,06,56.90
2014,11,08,11,07,60.70
2014,11,08,11,08,62.40
2014,11,08,11,09,62.50
2014,11,08,11,10,62.00
2014,11,08,11,11,62.00
2014,11,08,11,12,62.70
2014,11,08,11,13,66.30
2014,11,08,11,14,67.00
2014,11,08,11,15,67.00
2014,11,08,11,16,67.00
2014,11,08,11,17,67.00
2014,11,08,11,18,66.30
2014,11,08,11,19,63.80
2014,11,08,11,20,60.10
2014,11,08,11,21,56.90
2014,11,08,11,22,56.00
2014,11,08,11,23,57.40
2014,11,08,11,24,61.10
2014,11,08,11,25,62.90
2014,11,08,11,26,63.10
2014,11,08,11,27,65.30
2014,11,08,11,28,67.50
2014,11,08,11,29,69.00
2014,11,08,11,30,69.40
2014,11,08,11,31,70.90
2014,11,08,11,32,73.20
2014,11,08,11,33,75.90
2014,11,08,11,34,78.50
2014,11,08,11,35,79.00
2014,11,08,11,36,80.80
2014,11,08,11,37,81.00
2014,11,08,11,38,81.00
2014,11,08,11,39,81.00
2014,11,08,11,40,80.30
2014,11,08,11,41,79.00
2014,11,08,11,42,78.00
2014,11,08,11,43,78.10
2014,11,08,11,44,79.00
2014,11,08,11,45,79.00
2014,11,08,11,46,79.00
2014,11,08,11,47,77.20
2014,11,08,11,48,77.00
2014,11,08,11,49,76.10
2014,11,08,11,50,76.80
2014,11,08,11,51,76.00
2014,11,08,11,52,76.00
2014,11,08,11,53,76.50
2014,11,08,11,54,78.10
2014,11,08,11,55,80.30
2014,11,08,11,56,82.40
2014,11,08,11,57,83.80
2014,11,08,11,58,85.80
2014,11,08,11,59,88.00
2014,11,08,12,00,90.10
2014,11,08,12,01,91.40
2014,11,08,12,02,94.20
2014,11,08,12,03,98.10
2014,11,08,12,04,100.00
2014,11,08,12,05,102.20
2014,11,08,12,06,102.70
2014,11,08,12,07,99.20
2014,11,08,12,08,97.20
2014,11,08,12,09,95.20
2014,11,08,12,10,96.90
2014,11,08,12,11,97.10
2014,11,08,12,12,98.00
2014,11,08,12,13,97.10
2014,11,08,12,14,95.00
2014,11,08,12,15,98.40
2014,11,08,12,16,104.80
2014,11,08,12,17,105.70
2014,11,08,12,18,104.30
2014,11,08,12,19,102.40
2014,11,08,12,20,100.20
2014,11,08,12,21,96.90
2014,11,08,12,22,88.70
2014,11,08,12,23,79.40
2014,11,08,12,24,73.30
2014,11,08,12,25,70.80
2014,11,08,12,26,66.10
2014,11,08,12,27,62.40
2014,11,08,12,28,58.20
2014,11,08,12,29,53.80
2014,11,08,12,30,55.30
2014,11,08,12,31,62.20
2014,11,08,12,32,74.10
2014,11,08,12,33,81.20
2014,11,08,12,34,83.00
2014,11,08,12,35,83.30
2014,11,08,12,36,84.80
2014,11,08,12,37,88.40
2014,11,08,12,38,87.10
2014,11,08,12,39,73.30
2014,11,08,12,40,58.90
2014,11,08,12,41,54.40
2014,11,08,12,42,54.00
2014,11,08,12,43,54.00
2014,11,08,12,44,54.00
2014,11,08,12,45,54.00
2014,11,08,12,46,53.10
2014,11,08,12,47,51.00
2014,11,08,12,48,50.10
2014,11,08,12,49,45.10
2014,11,08,12,50,42.00
2014,11,08,12,51,44.80
2014,11,08,12,52,46.00
2014,11,08,12,53,48.70
2014,11,08,12,54,51.10
2014,11,08,12,55,53.00
2014,11,08,12,56,51.40
2014,11,08,12,57,44.80
2014,11,08,12,58,41.20
2014,11,08,12,59,40.00
2014,11,08,13,00,42.20
2014,11,08,13,01,45.90
2014,11,08,13,02,48.50
2014,11,08,13,03,56.30
2014,11,08,13,04,67.80
2014,11,08,13,05,73.50
2014,11,08,13,06,68.50
2014,11,08,13,07,57.60
2014,11,08,13,08,49.70
2014,11,08,13,09,57.50
2014,11,08,13,10,70.40
2014,11,08,13,11,74.00
2014,11,08,13,12,84.70
2014,11,08,13,13,88.80
2014,11,08,13,14,80.70
2014,11,08,13,15,72.80
2014,11,08,13,16,66.70
2014,11,08,13,17,60.00
2014,11,08,13,18,60.00
2014,11,08,13,19,58.80
2014,11,08,13,20,53.10
2014,11,08,13,21,45.60
2014,11,08,13,22,42.00
2014,11,08,13,23,43.30
2014,11,08,13,24,47.70
2014,11,08,13,25,50.60
2014,11,08,13,26,52.80
2014,11,08,13,27,58.60
2014,11,08,13,28,70.20
2014,11,08,13,29,79.40
2014,11,08,13,30,90.10
2014,11,08,13,31,95.80
2014,11,08,13,32,96.00
2014,11,08,13,33,92.80
2014,11,08,13,34,90.40
2014,11,08,13,35,87.00
2014,11,08,13,36,84.40
2014,11,08,13,37,84.00
2014,11,08,13,38,91.00
2014,11,08,13,39,95.70
2014,11,08,13,40,99.60
2014,11,08,13,41,97.10
2014,11,08,13,42,93.50
2014,11,08,13,43,90.60
2014,11,08,13,44,89.00
2014,11,08,13,45,85.60
2014,11,08,13,46,81.80
2014,11,08,13,47,79.40
2014,11,08,13,48,80.70
2014,11,08,13,49,81.20
2014,11,08,13,50,86.60
2014,11,08,13,51,92.10
2014,11,08,13,52,97.30
2014,11,08,13,53,97.60
2014,11,08,13,54,93.90
2014,11,08,13,55,83.30
2014,11,08,13,56,72.00
2014,11,08,13,57,64.80
2014,11,08,13,58,63.00
2014,11,08,13,59,51.10
2014,11,08,14,00,44.30
2014,11,08,14,01,48.40
2014,11,08,14,02,61.10
2014,11,08,14,03,64.40
2014,11,08,14,04,61.90
2014,11,08,14,05,56.90
2014,11,08,14,06,49.70
2014,11,08,14,07,45.10
2014,11,08,14,08,41.20
2014,11,08,14,09,39.20
2014,11,08,14,10,39.00
2014,11,08,14,11,40.10
2014,11,08,14,12,44.30
2014,11,08,14,13,46.20
2014,11,08,14,14,47.00
2014,11,08,14,15,47.00
2014,11,08,14,16,47.00
2014,11,08,14,17,48.10
2014,11,08,14,18,47.80
2014,11,08,14,19,46.30
2014,11,08,14,20,46.00
2014,11,08,14,21,46.90
2014,11,08,14,22,47.10
2014,11,08,14,23,49.00
2014,11,08,14,24,49.00
2014,11,08,14,25,49.00
2014,11,08,14,26,48.30
2014,11,08,14,27,46.60
2014,11,08,14,28,44.90
2014,11,08,14,29,42.70
2014,11,08,14,30,40.60
2014,11,08,14,31,39.20
2014,11,08,14,32,37.30
2014,11,08,14,33,35.10
2014,11,08,14,34,34.80
2014,11,08,14,35,33.00
2014,11,08,14,36,32.70
2014,11,08,14,37,32.00
2014,11,08,14,38,32.50
2014,11,08,14,39,33.00
2014,11,08,14,40,33.00
2014,11,08,14,41,33.00
2014,11,08,14,42,32.20
2014,11,08,14,43,30.20
2014,11,08,14,44,30.00
2014,11,08,14,45,30.00
2014,11,08,14,46,30.00
2014,11,08,14,47,30.00
2014,11,08,14,48,30.70
2014,11,08,14,49,32.50
2014,11,08,14,50,33.00
2014,11,08,14,51,33.00
2014,11,08,14,52,33.00
2014,11,08,14,53,33.00
2014,11,08,14,54,33.00
2014,11,08,14,55,33.00
2014,11,08,14,56,33.00
2014,11,08,14,57,33.00
2014,11,08,14,58,33.60
2014,11,08,14,59,34.30
2014,11,08,15,00,33.00
2014,11,08,15,01,33.00
2014,11,08,15,02,33.00
2014,11,08,15,03,33.00
2014,11,08,15,04,33.00
2014,11,08,15,05,33.00
2014,11,08,15,06,33.00
2014,11,08,15,07,32.90
2014,11,08,15,08,32.00
2014,11,08,15,09,32.00
2014,11,08,15,10,31.30
2014,11,08,15,11,30.00
2014,11,08,15,12,30.00
2014,11,08,15,13,28.70
2014,11,08,15,14,28.00
2014,11,08,15,15,28.00
2014,11,08,15,16,28.00
2014,11,08,15,17,28.00
2014,11,08,15,18,28.00
2014,11,08,15,19,27.60
2014,11,08,15,20,26.00
2014,11,08,15,21,26.00
2014,11,08,15,22,26.00
2014,11,08,15,23,25.50
2014,11,08,15,24,25.00
2014,11,08,15,25,25.00
2014,11,08,15,26,23.40
2014,11,08,15,27,23.00
2014,11,08,15,28,23.00
2014,11,08,15,29,23.00
2014,11,08,15,30,23.00
2014,11,08,15,31,23.00
2014,11,08,15,32,22.30
2014,11,08,15,33,21.00
2014,11,08,15,34,21.00
2014,11,08,15,35,19.70
2014,11,08,15,36,19.00
2014,11,08,15,37,19.00
2014,11,08,15,38,18.10
2014,11,08,15,39,17.90
2014,11,08,15,40,16.00
2014,11,08,15,41,16.00
2014,11,08,15,42,16.00
2014,11,08,15,43,16.00
2014,11,08,15,44,15.00
2014,11,08,15,45,14.00
2014,11,08,15,46,14.00
2014,11,08,15,47,14.00
2014,11,08,15,48,15.60
2014,11,08,15,49,17.80
2014,11,08,15,50,17.90
2014,11,08,15,51,15.70
2014,11,08,15,52,13.60
2014,11,08,15,53,11.70
2014,11,08,15,54,11.00
2014,11,08,15,55,11.00
2014,11,08,15,56,11.60
2014,11,08,15,57,12.00
2014,11,08,15,58,12.00
2014,11,08,15,59,12.00
2014,11,08,16,00,12.00
2014,11,08,16,01,12.00
2014,11,08,16,02,11.00
2014,11,08,16,03,10.60
2014,11,08,16,04,9.00
2014,11,08,16,05,8.30
2014,11,08,16,06,7.00
2014,11,08,16,07,7.00
2014,11,08,16,08,7.00
2014,11,08,16,09,7.00
2014,11,08,16,10,7.00
2014,11,08,16,11,7.00
2014,11,08,16,12,6.90
2014,11,08,16,13,5.00
2014,11,08,16,14,5.00
2014,11,08,16,15,5.00
2014,11,08,16,16,5.00
2014,11,08,16,17,5.00
2014,11,08,16,18,5.00
2014,11,08,16,19,5.00
2014,11,08,16,20,6.40
2014,11,08,16,21,7.00
2014,11,08,16,22,5.30
2014,11,08,16,23,5.10
2014,11,08,16,24,7.00
2014,11,08,16,25,7.00
2014,11,08,16,26,7.00
2014,11,08,16,27,7.00
2014,11,08,16,28,7.00
2014,11,08,16,29,6.00
2014,11,08,16,30,5.00
2014,11,08,16,31,5.00
2014,11,08,16,32,5.00
2014,11,08,16,33,5.00
2014,11,08,16,34,4.80
2014,11,08,16,35,0.00
2014,11,08,16,36,0.00
2014,11,08,16,37,0.00
2014,11,08,16,38,0.00
2014,11,08,16,39,0.00
2014,11,08,16,40,0.00
2014,11,08,16,41,0.00
2014,11,08,16,42,0.00
2014,11,08,16,43,0.00
2014,11,08,16,44,0.00
2014,11,08,16,45,0.00
2014,11,08,16,46,0.00
2014,11,08,16,47,0.00
2014,11,08,16,48,0.00
2014,11,08,16,49,0.00
2014,11,08,16,50,0.00
2014,11,08,16,51,0.00
2014,11,08,16,52,0.00
2014,11,08,16,53,0.00
2014,11,08,16,54,0.00
2014,11,08,16,55,0.00
2014,11,08,16,56,0.00
2014,11,08,16,57,0.00
2014,11,08,16,58,0.00
2014,11,08,16,59,0.00
2014,11,08,17,00,0.00
2014,11,08,17,01,0.00
2014,11,08,17,02,0.00
2014,11,08,17,03,0.00
2014,11,08,17,04,0.00
2014,11,08,17,05,0.00
2014,11,08,17,06,0.00
2014,11,08,17,07,0.00
2014,11,08,17,08,0.00
2014,11,08,17,09,0.00
2014,11,08,17,10,0.00
2014,11,08,17,11,0.00
2014,11,08,17,12,0.00
2014,11,08,17,13,0.00
2014,11,08,17,14,0.00
2014,11,08,17,15,0.00
2014,11,08,17,16,0.00
2014,11,08,17,17,0.00
2014,11,08,17,18,0.00
2014,11,08,17,19,0.00
2014,11,08,17,20,0.00
2014,11,08,17,21,0.00
2014,11,08,17,22,0.00
2014,11,08,17,23,0.00
2014,11,08,17,24,0.00
2014,11,08,17,25,0.00
2014,11,08,17,26,0.00
2014,11,08,17,27,0.00
2014,11,08,17,28,0.00
2014,11,08,17,29,0.00
2014,11,08,17,30,0.00
2014,11,08,17,31,0.00
2014,11,08,17,32,0.00
2014,11,08,17,33,0.00
2014,11,08,17,34,0.00
2014,11,08,17,35,0.00
2014,11,08,17,36,0.00
2014,11,08,17,37,0.00
2014,11,08,17,38,0.00
2014,11,08,17,39,0.00
2014,11,08,17,40,0.00
2014,11,08,17,41,0.00
2014,11,08,17,42,0.00
2014,11,08,17,43,0.00